KJ4AJP Weather Reports


time (UTC)temp
C
wind
direction
speed
KPH
gust
KPH
rain 1hr
cm
rain 24hr
cm
rain mn
cm
humidity
%
barometer
mb
20260906143014 31 51 1.6 1.6 0.00 0.00 0.00 65 1013.3
20260906142513 31 61 0.0 0.0 0.00 0.00 0.00 67 1013.5
20260906142009 31 54 0.0 1.6 0.00 0.00 0.00 67 1013.7
20260906141507 30 62 0.0 0.0 0.00 0.00 0.00 71 1013.8
20260906141002 30 41 1.6 1.6 0.00 0.00 0.00 69 1013.9
20260906140456 30 71 1.6 3.2 0.00 0.00 0.00 69 1013.6
20260906135954 30 59 0.0 0.0 0.00 0.00 0.00 70 1013.5
20260906135453 30 53 0.0 0.0 0.00 0.00 0.00 72 1013.7
20260906134949 29 69 0.0 0.0 0.00 0.00 0.00 73 1013.6
20260906134445 29 53 0.0 0.0 0.00 0.00 0.00 74 1013.7
20260906133944 28 51 1.6 1.6 0.00 0.00 0.00 75 1013.6
20260906133440 28 47 0.0 0.0 0.00 0.00 0.00 75 1013.8
20260906132936 28 47 0.0 0.0 0.00 0.00 0.00 76 1013.7
20260906132431 28 51 0.0 0.0 0.00 0.00 0.00 77 1013.7
20260906131926 28 50 0.0 0.0 0.00 0.00 0.00 79 1013.8
20260906131422 28 50 0.0 0.0 0.00 0.00 0.00 80 1013.7
20260906130917 27 48 0.0 0.0 0.00 0.00 0.00 82 1013.8
20260906130417 27 48 0.0 0.0 0.00 0.00 0.00 84 1013.8
20260906125916 26 48 0.0 0.0 0.00 0.00 0.00 84 1013.8
20260906125414 26 48 0.0 0.0 0.00 0.00 0.00 85 1013.7
20260906124908 26 48 0.0 0.0 0.00 0.00 0.00 86 1013.6
20260906124404 25 48 0.0 0.0 0.00 0.00 0.00 89 1013.6
20260906123904 25 48 0.0 0.0 0.00 0.00 0.00 91 1013.5
20260906123358 24 48 0.0 0.0 0.00 0.00 0.00 94 1013.4
20260906122858 24 48 0.0 0.0 0.00 0.00 0.00 94 1013.2
20260906122353 23 48 0.0 0.0 0.00 0.00 0.00 94 1013.1
20260906121850 23 48 0.0 0.0 0.00 0.00 0.00 94 1013.4
20260906121345 23 48 0.0 0.0 0.00 0.00 0.00 95 1013.3
20260906120842 23 48 0.0 0.0 0.00 0.00 0.00 95 1013.1
20260906120337 23 48 0.0 0.0 0.00 0.00 0.00 95 1012.8
20260906115833 23 48 0.0 0.0 0.00 0.00 0.00 95 1013.0
20260906115328 23 48 0.0 0.0 0.00 0.00 0.00 95 1012.9
20260906114827 23 48 0.0 0.0 0.00 0.00 0.00 96 1012.9
20260906114323 23 48 0.0 0.0 0.00 0.00 0.00 96 1012.8
20260906113818 23 48 0.0 0.0 0.00 0.00 0.00 96 1012.7
20260906113317 23 48 0.0 0.0 0.00 0.00 0.00 96 1012.6
20260906112813 23 48 0.0 0.0 0.00 0.00 0.00 96 1012.5
20260906112309 23 48 0.0 0.0 0.00 0.00 0.00 96 1012.4
20260906111808 23 48 0.0 0.0 0.00 0.00 0.00 96 1012.4
20260906111307 23 48 0.0 0.0 0.00 0.00 0.00 96 1012.3
20260906110803 23 48 0.0 0.0 0.00 0.00 0.00 96 1012.3
20260906110259 23 48 0.0 0.0 0.00 0.00 0.00 96 1012.2
20260906105758 23 48 0.0 0.0 0.00 0.00 0.00 96 1012.1
20260906105253 23 48 0.0 0.0 0.00 0.00 0.00 95 1012.2
20260906104749 23 48 0.0 0.0 0.00 0.00 0.00 95 1012.2
20260906104247 23 48 0.0 0.0 0.00 0.00 0.00 95 1012.2
20260906103746 23 48 0.0 0.0 0.00 0.00 0.00 95 1012.1
20260906103240 23 48 0.0 0.0 0.00 0.00 0.00 95 1012.0
20260906102736 23 48 0.0 0.0 0.00 0.00 0.00 95 1012.0
20260906102234 23 48 0.0 0.0 0.00 0.00 0.00 95 1011.8
20260906101730 23 48 0.0 0.0 0.00 0.00 0.00 95 1011.7
20260906101225 23 48 0.0 0.0 0.00 0.00 0.00 94 1011.6
20260906100720 23 48 0.0 0.0 0.00 0.00 0.00 94 1011.5
20260906100215 23 48 0.0 0.0 0.00 0.00 0.00 94 1011.5
20260906095714 23 48 0.0 0.0 0.00 0.00 0.00 94 1011.6
20260906095210 23 48 0.0 0.0 0.00 0.00 0.00 93 1011.3
20260906094708 23 48 0.0 0.0 0.00 0.00 0.00 94 1011.4
20260906094204 23 48 0.0 0.0 0.00 0.00 0.00 94 1011.8
20260906093700 23 48 0.0 0.0 0.00 0.00 0.00 93 1011.5
20260906093155 24 48 0.0 0.0 0.00 0.00 0.00 93 1011.9
20260906092651 24 48 0.0 0.0 0.00 0.00 0.00 93 1011.5
20260906092145 24 48 0.0 0.0 0.00 0.00 0.00 93 1011.7
20260906091642 24 47 0.0 0.0 0.00 0.00 0.00 93 1011.7
20260906091138 24 49 0.0 0.0 0.00 0.00 0.00 93 1011.6
20260906090633 24 49 0.0 0.0 0.00 0.00 0.00 93 1011.7
20260906090133 24 49 0.0 0.0 0.00 0.00 0.00 93 1011.7
20260906085631 24 48 0.0 0.0 0.00 0.00 0.00 93 1011.7
20260906085126 24 48 0.0 0.0 0.00 0.00 0.00 94 1011.7
20260906084626 24 48 0.0 0.0 0.00 0.00 0.00 93 1011.7
20260906084125 24 48 0.0 0.0 0.00 0.00 0.00 93 1011.6
20260906083621 24 48 0.0 0.0 0.00 0.00 0.00 93 1011.5
20260906083121 24 48 0.0 0.0 0.00 0.00 0.00 93 1011.5
20260906082616 25 48 0.0 0.0 0.00 0.00 0.00 93 1011.4
20260906082112 25 48 0.0 0.0 0.00 0.00 0.00 93 1011.6
20260906081608 25 48 0.0 0.0 0.00 0.00 0.00 93 1011.2
20260906081102 25 48 0.0 0.0 0.00 0.00 0.00 92 1011.5
20260906080559 25 48 0.0 0.0 0.00 0.00 0.00 92 1011.5
20260906080055 25 48 0.0 0.0 0.00 0.00 0.00 93 1011.5
20260906075555 25 48 0.0 0.0 0.00 0.00 0.00 93 1011.6
20260906075050 25 48 0.0 0.0 0.00 0.00 0.00 92 1011.5
20260906074544 25 48 0.0 0.0 0.00 0.00 0.00 92 1011.4
20260906074043 25 48 0.0 0.0 0.00 0.00 0.00 92 1011.5
20260906073538 25 48 0.0 0.0 0.00 0.00 0.00 92 1011.6
20260906073034 25 48 0.0 0.0 0.00 0.00 0.00 92 1011.4
20260906072529 25 48 0.0 0.0 0.00 0.00 0.00 91 1011.4
20260906072025 25 49 0.0 0.0 0.00 0.00 0.00 91 1011.3
20260906071521 25 49 0.0 0.0 0.00 0.00 0.00 92 1011.2
20260906071016 25 49 0.0 0.0 0.00 0.00 0.00 92 1011.3
20260906070513 25 49 0.0 0.0 0.00 0.00 0.00 92 1011.2
20260906070008 25 49 0.0 0.0 0.00 0.00 0.00 92 1011.1
20260906065507 25 49 0.0 0.0 0.00 0.00 0.00 92 1011.3
20260906065003 25 49 0.0 0.0 0.00 0.00 0.00 92 1011.2
20260906064459 25 49 0.0 0.0 0.00 0.00 0.00 92 1011.2
20260906063953 25 49 0.0 0.0 0.00 0.00 0.00 92 1011.3
20260906063449 25 49 0.0 0.0 0.00 0.00 0.00 92 1011.6
20260906062949 25 49 0.0 0.0 0.00 0.00 0.00 92 1011.7
20260906062444 25 49 0.0 0.0 0.00 0.00 0.00 92 1011.8
20260906061939 25 49 0.0 0.0 0.00 0.00 0.00 91 1011.9
20260906061435 25 49 0.0 0.0 0.00 0.00 0.00 91 1011.7
20260906060929 25 49 0.0 0.0 0.00 0.00 0.00 90 1011.7
20260906060427 25 49 0.0 0.0 0.00 0.00 0.00 90 1011.7
20260906055923 25 49 0.0 0.0 0.00 0.00 0.00 90 1011.9
20260906055419 25 49 0.0 0.0 0.00 0.00 0.00 90 1011.9
20260906054914 25 49 0.0 0.0 0.00 0.00 0.00 90 1011.9
20260906054408 25 49 0.0 0.0 0.00 0.00 0.00 90 1012.0
20260906053904 25 49 0.0 0.0 0.00 0.00 0.00 90 1012.1
20260906053400 25 49 0.0 0.0 0.00 0.00 0.00 90 1012.0
20260906052856 25 49 0.0 0.0 0.00 0.00 0.00 90 1011.9
20260906052352 25 49 0.0 0.0 0.00 0.00 0.00 89 1011.9
20260906051849 25 49 0.0 0.0 0.00 0.00 0.00 89 1011.9
20260906051348 25 49 0.0 0.0 0.00 0.00 0.00 88 1012.0
20260906050844 25 49 0.0 0.0 0.00 0.00 0.00 88 1011.9
20260906050339 26 49 0.0 0.0 0.00 0.00 0.00 87 1011.9
20260906045838 26 49 0.0 0.0 0.00 0.00 0.00 86 1011.9
20260906045332 26 49 0.0 0.0 0.00 0.00 0.00 86 1011.9
20260906044829 26 48 0.0 0.0 0.00 0.00 0.00 86 1011.9
20260906044328 26 49 0.0 0.0 0.00 0.00 0.00 86 1011.9
20260906043826 26 50 0.0 0.0 0.00 0.00 0.00 86 1012.1
20260906043320 26 50 0.0 0.0 0.00 0.00 0.00 86 1011.9
20260906042820 26 50 0.0 0.0 0.00 0.00 0.00 86 1012.0
20260906042319 26 50 0.0 0.0 0.00 0.00 0.00 86 1011.7
20260906041815 26 50 0.0 0.0 0.00 0.00 0.00 85 1011.7
20260906041310 26 49 1.6 1.6 0.00 0.00 0.00 85 1011.9
20260906040805 26 55 0.0 0.0 0.00 0.00 0.00 84 1012.0
20260906040300 26 55 0.0 0.0 0.00 0.00 0.00 84 1011.7
20260906035756 26 55 0.0 0.0 0.00 0.00 0.00 84 1011.8
20260906035252 26 55 0.0 0.0 0.00 0.00 0.00 83 1011.8
20260906034751 26 55 0.0 0.0 0.00 0.00 0.00 83 1011.6
20260906034246 26 55 0.0 0.0 0.00 0.00 0.00 82 1011.8
20260906033742 26 55 0.0 0.0 0.00 0.00 0.00 82 1011.9
20260906033241 26 54 0.0 0.0 0.00 0.00 0.00 82 1011.7
20260906032738 26 55 0.0 0.0 0.00 0.00 0.00 82 1011.7
20260906032238 26 55 0.0 0.0 0.00 0.00 0.00 81 1011.7
20260906031733 26 55 0.0 0.0 0.00 0.00 0.00 81 1011.8
20260906031229 27 55 0.0 0.0 0.00 0.00 0.00 81 1011.5
20260906030728 27 55 0.0 0.0 0.00 0.00 0.00 81 1011.5
20260906030224 27 55 0.0 0.0 0.00 0.00 0.00 79 1011.5
20260906025723 27 55 0.0 0.0 0.00 0.00 0.00 79 1011.4
20260906025218 27 55 0.0 0.0 0.00 0.00 0.00 79 1011.1
20260906024717 27 55 0.0 0.0 0.00 0.00 0.00 79 1011.7
20260906024216 27 55 0.0 0.0 0.00 0.00 0.00 78 1011.4
20260906023712 27 55 0.0 0.0 0.00 0.00 0.00 77 1011.3
20260906023213 27 55 0.0 0.0 0.00 0.00 0.00 77 1011.4
20260906022708 27 55 0.0 0.0 0.00 0.00 0.00 77 1011.4
20260906022203 27 55 0.0 0.0 0.00 0.00 0.00 75 1011.4
20260906021659 28 55 0.0 0.0 0.00 0.00 0.00 75 1011.1
20260906021158 28 55 0.0 0.0 0.00 0.00 0.00 74 1011.1
20260906020653 27 55 0.0 0.0 0.00 0.00 0.00 75 1011.2
20260906020148 28 55 0.0 0.0 0.00 0.00 0.00 76 1011.0
20260906015648 28 55 0.0 0.0 0.00 0.00 0.00 75 1011.1
20260906015147 28 55 0.0 0.0 0.00 0.00 0.00 74 1010.9
20260906014647 28 55 0.0 0.0 0.00 0.00 0.00 74 1011.0
20260906014143 28 55 0.0 0.0 0.00 0.00 0.00 73 1010.8
20260906013638 28 55 0.0 0.0 0.00 0.00 0.00 72 1010.8
20260906013134 28 55 0.0 0.0 0.00 0.00 0.00 71 1010.7
20260906012633 28 55 0.0 0.0 0.00 0.00 0.00 71 1010.7
20260906012128 29 55 0.0 0.0 0.00 0.00 0.00 71 1010.6
20260906011624 29 55 0.0 0.0 0.00 0.00 0.00 70 1010.7
20260906011124 30 55 0.0 0.0 0.00 0.00 0.00 69 1010.6
20260906010620 30 55 0.0 0.0 0.00 0.00 0.00 67 1010.8
20260906010116 30 55 0.0 0.0 0.00 0.00 0.00 65 1010.6
20260906005615 30 55 0.0 0.0 0.00 0.00 0.00 64 1010.7
20260906005115 30 55 0.0 0.0 0.00 0.00 0.00 63 1010.5
20260906004614 30 55 0.0 0.0 0.00 0.00 0.00 62 1010.3
20260906004109 30 55 0.0 0.0 0.00 0.00 0.00 62 1010.3
20260906003604 31 55 0.0 0.0 0.00 0.00 0.00 61 1010.3
20260906003101 31 55 0.0 0.0 0.00 0.00 0.00 61 1010.4
20260906002601 31 55 0.0 0.0 0.00 0.00 0.00 61 1010.5
20260906002055 31 55 0.0 0.0 0.00 0.00 0.00 61 1010.5
20260906001550 31 55 0.0 0.0 0.00 0.00 0.00 60 1010.6
20260906001045 32 55 0.0 0.0 0.00 0.00 0.00 61 1010.6
20260906000541 32 55 0.0 0.0 0.00 0.00 0.00 60 1010.8
20260906000036 32 55 0.0 0.0 0.00 0.00 0.00 59 1010.7
20260905235536 32 55 0.0 0.0 0.00 0.00 0.00 59 1010.6
20260905235031 33 55 0.0 0.0 0.00 0.00 0.00 58 1010.7
20260905234526 33 55 0.0 0.0 0.00 0.00 0.00 55 1010.8
20260905234026 33 55 0.0 0.0 0.00 0.00 0.00 55 1010.9
20260905233521 33 55 0.0 0.0 0.00 0.00 0.00 53 1010.8
20260905233021 33 55 0.0 0.0 0.00 0.00 0.00 53 1010.8
20260905232516 34 55 0.0 0.0 0.00 0.00 0.00 52 1010.7
20260905232012 34 55 0.0 0.0 0.00 0.00 0.00 50 1010.6
20260905231507 35 55 0.0 0.0 0.00 0.00 0.00 50 1010.6
20260905231004 35 55 0.0 0.0 0.00 0.00 0.00 49 1010.5
20260905230502 36 55 0.0 0.0 0.00 0.00 0.00 49 1010.7
20260905230000 36 55 0.0 0.0 0.00 0.00 0.00 46 1010.4
20260905225456 37 55 0.0 0.0 0.00 0.00 0.00 45 1010.6
20260905224951 37 55 0.0 0.0 0.00 0.00 0.00 43 1010.5
20260905224446 37 55 0.0 0.0 0.00 0.00 0.00 43 1010.6
20260905223945 37 55 0.0 0.0 0.00 0.00 0.00 43 1010.5
20260905223443 38 56 0.0 0.0 0.00 0.00 0.00 45 1010.7
20260905222938 38 52 0.0 0.0 0.00 0.00 0.00 43 1010.6
20260905222438 38 52 0.0 0.0 0.00 0.00 0.00 40 1010.7
20260905221933 38 52 0.0 0.0 0.00 0.00 0.00 40 1010.7
20260905221430 38 64 0.0 0.0 0.00 0.00 0.00 38 1010.7
20260905220926 38 59 0.0 0.0 0.00 0.00 0.00 44 1010.7
20260905220422 38 55 0.0 0.0 0.00 0.00 0.00 42 1010.8
20260905215921 38 79 1.6 1.6 0.00 0.00 0.00 42 1010.7
20260905215416 38 55 0.0 0.0 0.00 0.00 0.00 41 1010.6
20260905214913 39 48 1.6 1.6 0.00 0.00 0.00 41 1010.8
20260905214408 39 56 0.0 0.0 0.00 0.00 0.00 41 1010.7
20260905213908 39 49 0.0 0.0 0.00 0.00 0.00 39 1010.8
20260905213404 38 47 0.0 0.0 0.00 0.00 0.00 39 1010.7
20260905212859 38 56 0.0 0.0 0.00 0.00 0.00 43 1010.8
20260905212354 38 58 0.0 1.6 0.00 0.00 0.00 41 1010.7
20260905211853 40 59 1.6 1.6 0.00 0.00 0.00 42 1010.9
20260905211349 39 46 0.0 0.0 0.00 0.00 0.00 37 1010.9
20260905210846 38 60 0.0 0.0 0.00 0.00 0.00 41 1011.0
20260905210345 38 43 1.6 1.6 0.00 0.00 0.00 38 1010.9
20260905205844 38 46 0.0 0.0 0.00 0.00 0.00 39 1010.9
20260905205339 38 66 1.6 1.6 0.00 0.00 0.00 44 1010.9
20260905204838 39 58 0.0 0.0 0.00 0.00 0.00 39 1011.0
20260905204335 38 69 0.0 1.6 0.00 0.00 0.00 39 1010.9
20260905203833 38 73 1.6 1.6 0.00 0.00 0.00 40 1011.1
20260905203329 37 46 0.0 0.0 0.00 0.00 0.00 44 1011.1
20260905202824 37 62 0.0 0.0 0.00 0.00 0.00 43 1011.4
20260905202314 36 51 0.0 1.6 0.00 0.00 0.00 49 1011.4
20260905201810 36 61 0.0 0.0 0.00 0.00 0.00 47 1011.6
20260905201305 36 61 0.0 0.0 0.00 0.00 0.00 47 1011.5
20260905200804 37 60 0.0 0.0 0.00 0.00 0.00 46 1011.7
20260905200301 37 71 1.6 1.6 0.00 0.00 0.00 46 1011.7
20260905195758 38 37 1.6 1.6 0.00 0.00 0.00 41 1011.7
20260905195254 38 47 1.6 1.6 0.00 0.00 0.00 42 1011.8
20260905194749 38 54 0.0 0.0 0.00 0.00 0.00 41 1011.9
20260905194249 38 64 0.0 0.0 0.00 0.00 0.00 42 1012.1
20260905193748 38 245 3.2 3.2 0.00 0.00 0.00 39 1012.1
20260905193243 38 314 3.2 3.2 0.00 0.00 0.00 41 1012.3
20260905192738 38 42 1.6 1.6 0.00 0.00 0.00 43 1012.3
20260905192235 38 60 0.0 0.0 0.00 0.00 0.00 42 1012.3
20260905191734 37 56 0.0 0.0 0.00 0.00 0.00 44 1012.4
20260905191232 36 65 0.0 0.0 0.00 0.00 0.00 44 1012.4
20260905190731 36 58 0.0 0.0 0.00 0.00 0.00 51 1012.6
20260905190230 37 59 1.6 1.6 0.00 0.00 0.00 45 1012.8
20260905185730 38 61 0.0 0.0 0.00 0.00 0.00 40 1012.9
20260905185224 38 51 1.6 1.6 0.00 0.00 0.00 40 1013.0
20260905184719 38 104 1.6 1.6 0.00 0.00 0.00 40 1012.9
20260905184218 38 43 0.0 0.0 0.00 0.00 0.00 40 1012.9
20260905183718 38 20 3.2 3.2 0.00 0.00 0.00 41 1012.9
20260905183213 38 58 1.6 3.2 0.00 0.00 0.00 45 1013.1
20260905182713 38 65 1.6 3.2 0.00 0.00 0.00 44 1013.1
20260905182212 38 62 0.0 1.6 0.00 0.00 0.00 40 1013.0
20260905181708 37 55 3.2 4.8 0.00 0.00 0.00 44 1013.0
20260905181207 37 59 0.0 1.6 0.00 0.00 0.00 42 1013.1
20260905180701 37 56 0.0 1.6 0.00 0.00 0.00 44 1013.2
20260905180157 36 102 1.6 1.6 0.00 0.00 0.00 47 1013.2
20260905175655 37 67 0.0 1.6 0.00 0.00 0.00 46 1013.2
20260905175151 37 27 3.2 3.2 0.00 0.00 0.00 42 1013.3
20260905174647 37 45 1.6 3.2 0.00 0.00 0.00 41 1013.4
20260905174142 37 77 1.6 1.6 0.00 0.00 0.00 41 1013.4
20260905173638 37 70 0.0 1.6 0.00 0.00 0.00 45 1013.3
20260905173134 37 319 3.2 3.2 0.00 0.00 0.00 44 1013.3
20260905172632 37 281 9.7 11.3 0.00 0.00 0.00 42 1013.5
20260905172127 37 51 0.0 0.0 0.00 0.00 0.00 46 1013.5
20260905171624 37 247 4.8 6.4 0.00 0.00 0.00 44 1013.5
20260905171119 37 74 1.6 1.6 0.00 0.00 0.00 45 1013.8
20260905170616 37 44 1.6 1.6 0.00 0.00 0.00 44 1013.7
20260905170112 37 51 0.0 0.0 0.00 0.00 0.00 47 1013.8
20260905165611 37 20 1.6 1.6 0.00 0.00 0.00 45 1013.8
20260905165107 37 69 1.6 1.6 0.00 0.00 0.00 49 1013.8
20260905164602 37 66 1.6 1.6 0.00 0.00 0.00 47 1013.9
20260905164101 37 48 0.0 1.6 0.00 0.00 0.00 46 1014.2
20260905163558 37 68 0.0 0.0 0.00 0.00 0.00 49 1014.1
20260905163054 36 61 0.0 0.0 0.00 0.00 0.00 47 1014.1
20260905162550 36 351 3.2 4.8 0.00 0.00 0.00 47 1014.1
20260905162049 36 57 0.0 1.6 0.00 0.00 0.00 49 1014.2
20260905161549 36 51 0.0 0.0 0.00 0.00 0.00 50 1014.2
20260905161047 36 54 0.0 0.0 0.00 0.00 0.00 51 1014.2
20260905160545 36 70 0.0 0.0 0.00 0.00 0.00 52 1014.4
20260905160045 36 77 0.0 1.6 0.00 0.00 0.00 52 1014.3
20260905155545 36 87 1.6 1.6 0.00 0.00 0.00 48 1014.4
20260905155044 36 82 0.0 1.6 0.00 0.00 0.00 51 1014.3
20260905154539 36 48 1.6 1.6 0.00 0.00 0.00 54 1014.4
20260905154035 35 62 0.0 0.0 0.00 0.00 0.00 54 1014.3
20260905153530 35 60 0.0 0.0 0.00 0.00 0.00 54 1014.4
20260905153030 36 48 0.0 1.6 0.00 0.00 0.00 53 1014.4
20260905152525 36 91 0.0 1.6 0.00 0.00 0.00 54 1014.5
20260905152020 35 67 0.0 1.6 0.00 0.00 0.00 53 1014.6
20260905151515 36 336 3.2 3.2 0.00 0.00 0.00 53 1014.5
20260905151010 36 60 0.0 1.6 0.00 0.00 0.00 52 1014.5
20260905150506 35 66 0.0 0.0 0.00 0.00 0.00 56 1014.6
20260905150003 35 56 0.0 0.0 0.00 0.00 0.00 55 1014.5
20260905145457 35 66 0.0 0.0 0.00 0.00 0.00 56 1014.6
20260905144956 34 64 0.0 0.0 0.00 0.00 0.00 58 1014.5
20260905144452 33 71 0.0 1.6 0.00 0.00 0.00 62 1014.5
20260905143950 32 64 0.0 0.0 0.00 0.00 0.00 62 1014.4
20260905143449 32 69 0.0 1.6 0.00 0.00 0.00 63 1014.6